Location: Newark
(42.7133°N, 87.7910°W)
Time: 23:39:25
(UTC+00:00)

Vanguard 1 Rocket - Pass Details

Date: 20 September 2019
Orbit: 650 x 4226 km, 34.3° (Epoch: 19 October)

Event Time Altitude Azimuth Distance (km) Brightness Sun altitude
Rises 01:41:55 0° 256° (WSW) 7,796 13.0 -20.1°
Reaches altitude 10° 01:47:59 10° 254° (WSW) 6,310 12.3 -21.2°
Maximum altitude 02:05:02 58° 182° (S) 2,310 9.2 -24.0°
Enters shadow 02:09:04 39° 126° (SE) 2,380 8.9 -24.7°
